Laramie, WY

7:25 AM MDT on August 27, 2016 (GMT -0600)
Laramie Regional

Weather History for KLAR - October, 2010

Change the Weather History Date:

Friday, October 22, 2010

  Actual Average Record
Temperature  
Mean Temperature 39 °F 40 °F  
Max Temperature 48 °F 53 °F 78 °F (2003)
Min Temperature 30 °F 26 °F 6 °F (1984)
Degree Days  
Heating Degree Days 26 25  
Month to date heating degree days 369 473  
Since 1 July heating degree days 733 998  
Cooling Degree Days 0 0  
Month to date cooling degree days 0 0  
Year to date cooling degree days 73 67  
Moisture  
Dew Point 38 °F    
Average Humidity 85    
Maximum Humidity 100    
Minimum Humidity 70    
Precipitation  
Precipitation 0.36 in 0.02 in 0.54 in (2015)
Month to date precipitation 1.15 0.60  
Year to date precipitation 9.75 9.86  
Sea Level Pressure  
Sea Level Pressure 29.73 in    
Wind  
Wind Speed 4 mph (WNW)    
Max Wind Speed 15 mph    
Max Gust Speed 17 mph    
Visibility 8 miles    
Events Rain    
T = Trace of Precipitation, MM = Missing Value Source: NWS Daily Summary

Daily Weather History Graph

Daily Weather History Graph

Search for Another Location

Airport or City:

Trip Planner

Search our weather history database for the weather conditions in past years. The results will help you decide how hot, cold, wet, or windy it might be!

Date:

Astronomy

Oct. 22, 2010 Rise Set
Actual Time 7:22 AM MDT 6:11 PM MDT
Civil Twilight 6:54 AM MDT 6:39 PM MDT
Nautical Twilight 6:22 AM MDT 7:11 PM MDT
Astronomical Twilight 5:50 AM MDT 7:43 PM MDT
Moon 5:41 PM MDT (10/22) 7:04 AM MDT (10/22)
Length of Visible Light 11h 45m
Length of Day
10h 48m
Full, 100% of the Moon is Illuminated
Oct 22
Full
Oct 22
Full
Oct 30
Last Quarter
Nov 5
New
Nov 13
First Quarter

Hourly Weather History & Observations

Time (MDT) Temp. Windchill Dew Point Humidity Pressure Visibility Wind Dir Wind Speed Gust Speed Precip Events Conditions
12:53 AM 36.0 °F - 30.0 °F 79% 29.75 in 10.0 mi Calm Calm - N/A   Clear
1:53 AM 35.1 °F - 30.0 °F 82% 29.73 in 10.0 mi Calm Calm - N/A   Clear
2:53 AM 37.0 °F - 30.9 °F 79% 29.70 in 10.0 mi Calm Calm - N/A   Clear
3:53 AM 37.0 °F - 30.0 °F 76% 29.70 in 10.0 mi Calm Calm - N/A   Clear
4:53 AM 33.1 °F 28.7 °F 28.9 °F 85% 29.73 in 10.0 mi SE 4.6 mph - N/A   Clear
5:53 AM 30.9 °F - 28.0 °F 89% 29.75 in 10.0 mi Calm Calm - N/A   Clear
6:53 AM 33.1 °F - 28.9 °F 85% 29.77 in 10.0 mi Calm Calm - N/A   Clear
7:53 AM 33.1 °F 28.7 °F 28.9 °F 85% 29.78 in 10.0 mi West 4.6 mph - N/A   Clear
8:53 AM 37.0 °F - 33.1 °F 86% 29.76 in 10.0 mi Calm Calm - N/A   Mostly Cloudy
9:53 AM 42.1 °F 40.2 °F 35.1 °F 76% 29.74 in 10.0 mi SSW 3.5 mph - N/A   Overcast
10:53 AM 44.1 °F 42.5 °F 36.0 °F 73% 29.75 in 10.0 mi West 3.5 mph - N/A   Overcast
11:53 AM 46.0 °F 43.9 °F 36.0 °F 68% 29.73 in 10.0 mi WNW 4.6 mph - 0.00 in Rain Light Rain
12:53 PM 46.9 °F - 41.0 °F 80% 29.69 in 9.0 mi NNW 4.6 mph - 0.01 in Rain Light Rain
1:53 PM 43.0 °F 39.5 °F 41.0 °F 93% 29.72 in 3.0 mi NE 5.8 mph - 0.09 in Rain Heavy Rain
2:01 PM 42.8 °F 39.3 °F 42.8 °F 100% 29.81 in 2.5 mi NE 5.8 mph - 0.03 in Rain Rain
2:15 PM 42.8 °F 40.1 °F 41.0 °F 93% 29.81 in 3.0 mi NNE 4.6 mph - N/A Rain Rain
2:53 PM 43.0 °F 39.5 °F 39.9 °F 89% 29.69 in 4.0 mi NW 5.8 mph - 0.14 in Rain Rain
3:14 PM 42.8 °F 38.6 °F 37.4 °F 81% 29.80 in 6.0 mi WNW 6.9 mph - 0.02 in Rain Light Rain
3:30 PM 42.8 °F 38.6 °F 39.2 °F 87% 29.79 in 10.0 mi West 6.9 mph - 0.03 in Rain Light Rain
3:53 PM 42.1 °F 37.1 °F 42.1 °F 100% 29.68 in 8.0 mi West 8.1 mph - 0.04 in Rain Light Rain
4:09 PM 42.8 °F 38.6 °F 42.8 °F 100% 29.79 in 10.0 mi West 6.9 mph - 0.00 in Rain Light Rain
4:53 PM 41.0 °F 36.4 °F 41.0 °F 100% 29.70 in 10.0 mi West 6.9 mph - 0.00 in   Overcast
5:44 PM 41.0 °F - 41.0 °F 100% 29.78 in 3.0 mi Calm Calm - 0.01 in Rain Light Rain
5:53 PM 41.0 °F - 41.0 °F 100% 29.71 in 6.0 mi Calm Calm - 0.01 in Rain Light Rain
6:43 PM 41.0 °F - 41.0 °F 100% 29.78 in 6.0 mi Calm Calm - 0.00 in Rain Light Rain
6:53 PM 39.9 °F - 39.9 °F 100% 29.70 in 5.0 mi Calm Calm - 0.00 in Rain Light Rain
7:53 PM 41.0 °F 39.0 °F 41.0 °F 100% 29.70 in 10.0 mi SW 3.5 mph - 0.00 in   Overcast
8:04 PM 41.0 °F 39.0 °F 41.0 °F 100% 29.77 in 10.0 mi West 3.5 mph - 0.00 in Rain Light Rain
8:50 PM 41.0 °F 35.2 °F 41.0 °F 100% 29.76 in 6.0 mi WNW 9.2 mph - 0.01 in Rain Light Rain
8:53 PM 41.0 °F 35.2 °F 41.0 °F 100% 29.66 in 6.0 mi WNW 9.2 mph - 0.01 in Rain Light Rain
9:51 PM 41.0 °F 34.7 °F 41.0 °F 100% 29.76 in 4.0 mi WNW 10.4 mph - 0.01 in Rain Light Rain
9:53 PM 41.0 °F 34.7 °F 41.0 °F 100% 29.62 in 4.0 mi WNW 10.4 mph - 0.01 in Rain Light Rain
10:07 PM 39.2 °F 33.0 °F 39.2 °F 100% 29.76 in 6.0 mi WNW 9.2 mph - 0.00 in Rain Light Rain
10:53 PM 39.9 °F 32.5 °F 39.9 °F 100% 29.62 in 10.0 mi WNW 12.7 mph - 0.01 in Rain Light Rain
11:19 PM 39.2 °F 33.6 °F 39.2 °F 100% 29.76 in 4.0 mi WNW 8.1 mph - 0.01 in Rain Light Rain
11:46 PM 39.2 °F 34.2 °F 39.2 °F 100% 29.76 in 5.0 mi West 6.9 mph - 0.01 in Rain Light Rain
11:53 PM 39.9 °F 34.5 °F 39.9 °F 100% 29.62 in 7.0 mi West 8.1 mph - 0.01 in   Overcast